Time,TemperatureF,DewpointF,PressureIn,WindDirection,WindDirectionDegrees,WindSpeedMPH,WindSpeedGustMPH,Humidity,HourlyPrecipIn,Conditions,Clouds,dailyrainin,SoftwareType,DateUTC
2013-01-16 00:17:00,37.6,37.0,30.10,East,89,0.0,-999.0,99,-99.99,,,0.00,weatherlink.com 1.10,2013-01-16 05:17:00,
2013-01-16 00:32:00,37.6,37.0,30.11,SSE,159,0.0,-999.0,99,-99.99,,,0.00,weatherlink.com 1.10,2013-01-16 05:32:00,
2013-01-16 00:47:00,38.8,39.0,30.11,SSE,163,0.0,-999.0,99,-99.99,,,0.00,weatherlink.com 1.10,2013-01-16 05:47:00,
2013-01-16 01:02:00,39.5,39.0,30.10,East,79,1.0,-999.0,99,-99.99,,,0.00,weatherlink.com 1.10,2013-01-16 06:02:00,
2013-01-16 01:17:00,39.9,40.0,30.09,ESE,119,0.0,-999.0,99,-99.99,,,0.00,weatherlink.com 1.10,2013-01-16 06:17:00,
2013-01-16 01:32:00,41.3,41.0,30.09,SSW,207,2.0,-999.0,99,-99.99,,,0.00,weatherlink.com 1.10,2013-01-16 06:32:00,
2013-01-16 01:47:00,41.9,42.0,30.09,South,182,0.0,-999.0,99,-99.99,,,0.00,weatherlink.com 1.10,2013-01-16 06:47:00,
2013-01-16 02:02:00,42.6,42.0,30.09,WNW,282,2.0,-999.0,99,-99.99,,,0.00,weatherlink.com 1.10,2013-01-16 07:02:00,
2013-01-16 02:17:00,43.3,43.0,30.09,West,261,0.0,-999.0,99,-99.99,,,0.00,weatherlink.com 1.10,2013-01-16 07:17:00,
2013-01-16 02:32:00,45.1,45.0,30.09,West,270,3.0,-999.0,99,-99.99,,,0.00,weatherlink.com 1.10,2013-01-16 07:32:00,
2013-01-16 02:47:00,46.4,46.0,30.08,SSW,206,3.0,-999.0,100,-99.99,,,0.00,weatherlink.com 1.10,2013-01-16 07:47:00,
2013-01-16 03:02:00,46.7,47.0,30.07,SSE,153,3.0,-999.0,100,-99.99,,,0.00,weatherlink.com 1.10,2013-01-16 08:02:00,
2013-01-16 03:17:00,46.4,46.0,30.07,SSE,165,3.0,-999.0,100,-99.99,,,0.00,weatherlink.com 1.10,2013-01-16 08:17:00,
2013-01-16 03:32:00,47.3,47.0,30.06,South,184,4.0,-999.0,100,-99.99,,,0.00,weatherlink.com 1.10,2013-01-16 08:32:00,
2013-01-16 03:47:00,47.1,47.0,30.06,SSE,148,2.0,-999.0,100,-99.99,,,0.00,weatherlink.com 1.10,2013-01-16 08:47:00,
2013-01-16 04:02:00,46.5,47.0,30.05,SE,144,0.0,-999.0,100,-99.99,,,0.00,weatherlink.com 1.10,2013-01-16 09:02:00,
2013-01-16 04:17:00,46.5,47.0,30.05,South,182,0.0,-999.0,100,-99.99,,,0.00,weatherlink.com 1.10,2013-01-16 09:17:00,
2013-01-16 04:32:00,46.8,47.0,30.05,SE,140,1.0,-999.0,100,-99.99,,,0.00,weatherlink.com 1.10,2013-01-16 09:32:00,
2013-01-16 04:47:00,46.4,46.0,30.04,East,99,1.0,-999.0,100,-99.99,,,0.00,weatherlink.com 1.10,2013-01-16 09:47:00,
2013-01-16 05:02:00,46.7,47.0,30.03,SE,135,1.0,-999.0,100,-99.99,,,0.00,weatherlink.com 1.10,2013-01-16 10:02:00,
2013-01-16 05:17:00,46.8,47.0,30.03,SE,135,1.0,-999.0,100,-99.99,,,0.00,weatherlink.com 1.10,2013-01-16 10:17:00,
2013-01-16 05:32:00,46.2,46.0,30.03,SE,135,0.0,-999.0,100,-99.99,,,0.00,weatherlink.com 1.10,2013-01-16 10:32:00,
2013-01-16 05:47:00,45.5,46.0,30.03,ESE,113,1.0,-999.0,100,-99.99,,,0.00,weatherlink.com 1.10,2013-01-16 10:47:00,
2013-01-16 06:02:00,45.4,45.0,30.04,SE,142,2.0,-999.0,100,-99.99,,,0.00,weatherlink.com 1.10,2013-01-16 11:02:00,
2013-01-16 06:17:00,45.4,45.0,30.05,South,182,0.0,-999.0,100,-99.99,,,0.00,weatherlink.com 1.10,2013-01-16 11:17:00,
2013-01-16 06:32:00,45.7,46.0,30.04,South,181,2.0,-999.0,100,-99.99,,,0.00,weatherlink.com 1.10,2013-01-16 11:32:00,
2013-01-16 06:47:00,45.4,45.0,30.03,SE,131,4.0,-999.0,100,-99.99,,,0.00,weatherlink.com 1.10,2013-01-16 11:47:00,
2013-01-16 07:02:00,45.7,46.0,30.04,South,180,1.0,-999.0,100,-99.99,,,0.00,weatherlink.com 1.10,2013-01-16 12:02:00,
2013-01-16 07:17:00,45.1,45.0,30.04,SSE,153,1.0,-999.0,100,-99.99,,,0.00,weatherlink.com 1.10,2013-01-16 12:17:00,
2013-01-16 07:32:00,44.9,45.0,30.05,SE,134,0.0,-999.0,100,-99.99,,,0.00,weatherlink.com 1.10,2013-01-16 12:32:00,
2013-01-16 07:47:00,45.1,45.0,30.05,SE,128,0.0,-999.0,100,-99.99,,,0.00,weatherlink.com 1.10,2013-01-16 12:47:00,
2013-01-16 08:02:00,45.4,45.0,30.05,SW,214,0.0,-999.0,100,-99.99,,,0.00,weatherlink.com 1.10,2013-01-16 13:02:00,
2013-01-16 08:17:00,45.8,46.0,30.06,South,173,0.0,-999.0,100,-99.99,,,0.00,weatherlink.com 1.10,2013-01-16 13:17:00,
2013-01-16 08:32:00,47.6,48.0,30.06,West,267,4.0,-999.0,100,-99.99,,,0.00,weatherlink.com 1.10,2013-01-16 13:32:00,
2013-01-16 08:47:00,47.6,48.0,30.08,WNW,290,4.0,-999.0,100,-99.99,,,0.00,weatherlink.com 1.10,2013-01-16 13:47:00,
2013-01-16 09:02:00,49.1,49.0,30.07,WNW,288,6.0,-999.0,100,-99.99,,,0.00,weatherlink.com 1.10,2013-01-16 14:02:00,
2013-01-16 09:17:00,49.4,49.0,30.08,West,281,6.0,-999.0,100,-99.99,,,0.00,weatherlink.com 1.10,2013-01-16 14:17:00,
2013-01-16 09:32:00,49.4,49.0,30.09,West,277,6.0,-999.0,100,-99.99,,,0.00,weatherlink.com 1.10,2013-01-16 14:32:00,
2013-01-16 09:47:00,49.1,49.0,30.09,WNW,283,6.0,-999.0,100,-99.99,,,0.00,weatherlink.com 1.10,2013-01-16 14:47:00,
2013-01-16 10:02:00,49.2,49.0,30.10,West,281,5.0,-999.0,100,-99.99,,,0.00,weatherlink.com 1.10,2013-01-16 15:02:00,
2013-01-16 10:17:00,49.2,49.0,30.08,NW,321,10.0,-999.0,100,-99.99,,,0.00,weatherlink.com 1.10,2013-01-16 15:17:00,
2013-01-16 10:32:00,49.2,49.0,30.08,NW,315,6.0,-999.0,100,-99.99,,,0.00,weatherlink.com 1.10,2013-01-16 15:32:00,
2013-01-16 10:47:00,48.8,49.0,30.09,WNW,288,4.0,-999.0,100,-99.99,,,0.00,weatherlink.com 1.10,2013-01-16 15:47:00,
2013-01-16 11:02:00,48.9,49.0,30.09,West,274,3.0,-999.0,100,-99.99,,,0.00,weatherlink.com 1.10,2013-01-16 16:02:00,
2013-01-16 11:17:00,49.2,49.0,30.08,NW,307,1.0,-999.0,100,-99.99,,,0.00,weatherlink.com 1.10,2013-01-16 16:17:00,
2013-01-16 11:32:00,49.6,49.0,30.06,WNW,302,1.0,-999.0,98,-99.99,,,0.00,weatherlink.com 1.10,2013-01-16 16:32:00,
2013-01-16 11:47:00,49.5,48.0,30.05,WSW,240,2.0,-999.0,96,-99.99,,,0.00,weatherlink.com 1.10,2013-01-16 16:47:00,
2013-01-16 12:02:00,49.8,48.0,30.05,SW,234,3.0,-999.0,92,-99.99,,,0.00,weatherlink.com 1.10,2013-01-16 17:02:00,
2013-01-16 12:17:00,50.2,47.0,30.04,WSW,242,0.0,-999.0,90,-99.99,,,0.00,weatherlink.com 1.10,2013-01-16 17:17:00,
2013-01-16 12:32:00,50.8,47.0,30.02,WSW,242,0.0,-999.0,87,-99.99,,,0.00,weatherlink.com 1.10,2013-01-16 17:32:00,
2013-01-16 12:47:00,51.1,49.0,30.01,ESE,112,3.0,-999.0,91,-99.99,,,0.00,weatherlink.com 1.10,2013-01-16 17:47:00,
2013-01-16 13:03:00,51.1,49.0,30.00,SSE,155,0.0,-999.0,92,-99.99,,,0.00,weatherlink.com 1.10,2013-01-16 18:03:00,
2013-01-16 13:18:00,50.4,49.0,30.00,SSE,157,0.0,-999.0,93,-99.99,,,0.00,weatherlink.com 1.10,2013-01-16 18:18:00,
2013-01-16 13:33:00,49.6,48.0,29.99,SSE,159,1.0,-999.0,94,-99.99,,,0.00,weatherlink.com 1.10,2013-01-16 18:33:00,
2013-01-16 13:48:00,49.5,48.0,30.00,SSE,159,0.0,-999.0,95,-99.99,,,0.00,weatherlink.com 1.10,2013-01-16 18:48:00,
2013-01-16 14:03:00,50.1,49.0,29.99,SE,138,1.0,-999.0,96,-99.99,,,0.00,weatherlink.com 1.10,2013-01-16 19:03:00,
2013-01-16 14:18:00,50.4,49.0,29.99,South,170,0.0,-999.0,96,-99.99,,,0.00,weatherlink.com 1.10,2013-01-16 19:18:00,
2013-01-16 14:33:00,51.3,49.0,29.98,SE,136,1.0,-999.0,92,-99.99,,,0.00,weatherlink.com 1.10,2013-01-16 19:33:00,
2013-01-16 14:48:00,51.9,49.0,29.97,South,176,0.0,-999.0,90,-99.99,,,0.00,weatherlink.com 1.10,2013-01-16 19:48:00,
2013-01-16 15:03:00,52.0,49.0,29.99,South,181,0.0,-999.0,89,-99.99,,,0.00,weatherlink.com 1.10,2013-01-16 20:03:00,
2013-01-16 15:18:00,52.5,49.0,29.99,South,170,1.0,-999.0,88,-99.99,,,0.00,weatherlink.com 1.10,2013-01-16 20:18:00,
2013-01-16 15:33:00,53.3,48.0,29.99,WSW,242,1.0,-999.0,81,-99.99,,,0.00,weatherlink.com 1.10,2013-01-16 20:33:00,
2013-01-16 15:48:00,53.5,48.0,29.99,NW,319,3.0,-999.0,81,-99.99,,,0.00,weatherlink.com 1.10,2013-01-16 20:48:00,
2013-01-16 16:03:00,52.6,47.0,30.01,NW,306,1.0,-999.0,81,-99.99,,,0.00,weatherlink.com 1.10,2013-01-16 21:03:00,
2013-01-16 16:18:00,51.9,46.0,30.01,West,267,0.0,-999.0,79,-99.99,,,0.00,weatherlink.com 1.10,2013-01-16 21:18:00,
2013-01-16 16:33:00,51.3,47.0,30.00,SW,231,0.0,-999.0,84,-99.99,,,0.00,weatherlink.com 1.10,2013-01-16 21:33:00,
2013-01-16 16:48:00,50.7,48.0,30.01,SW,231,0.0,-999.0,89,-99.99,,,0.00,weatherlink.com 1.10,2013-01-16 21:48:00,
2013-01-16 17:03:00,50.1,47.0,30.02,SSW,196,0.0,-999.0,89,-99.99,,,0.00,weatherlink.com 1.10,2013-01-16 22:03:00,
2013-01-16 17:18:00,49.8,47.0,30.02,South,180,1.0,-999.0,90,-99.99,,,0.00,weatherlink.com 1.10,2013-01-16 22:18:00,
2013-01-16 17:33:00,49.2,47.0,30.02,South,180,0.0,-999.0,92,-99.99,,,0.00,weatherlink.com 1.10,2013-01-16 22:33:00,
2013-01-16 17:48:00,48.8,47.0,30.03,SSE,148,0.0,-999.0,92,-99.99,,,0.00,weatherlink.com 1.10,2013-01-16 22:48:00,
2013-01-16 18:03:00,48.8,46.0,30.04,West,262,2.0,-999.0,90,-99.99,,,0.00,weatherlink.com 1.10,2013-01-16 23:03:00,
2013-01-16 18:18:00,49.2,45.0,30.03,WSW,250,1.0,-999.0,86,-99.99,,,0.00,weatherlink.com 1.10,2013-01-16 23:18:00,
2013-01-16 18:33:00,49.8,46.0,30.03,SSW,196,0.0,-999.0,85,-99.99,,,0.00,weatherlink.com 1.10,2013-01-16 23:33:00,
2013-01-16 18:48:00,50.4,46.0,30.04,South,169,0.0,-999.0,86,-99.99,,,0.00,weatherlink.com 1.10,2013-01-16 23:48:00,
2013-01-16 19:03:00,49.6,46.0,30.04,SE,140,0.0,-999.0,87,-99.99,,,0.00,weatherlink.com 1.10,2013-01-17 00:03:00,
2013-01-16 19:18:00,49.2,46.0,30.04,SE,140,0.0,-999.0,89,-99.99,,,0.00,weatherlink.com 1.10,2013-01-17 00:18:00,
2013-01-16 19:33:00,49.2,47.0,30.04,SE,140,0.0,-999.0,90,-99.99,,,0.00,weatherlink.com 1.10,2013-01-17 00:33:00,
2013-01-16 19:48:00,49.6,46.0,30.04,WNW,294,1.0,-999.0,88,-99.99,,,0.00,weatherlink.com 1.10,2013-01-17 00:48:00,
2013-01-16 20:03:00,50.7,46.0,30.04,WSW,247,2.0,-999.0,85,-99.99,,,0.00,weatherlink.com 1.10,2013-01-17 01:03:00,
2013-01-16 20:18:00,51.1,46.0,30.03,SW,233,0.0,-999.0,83,-99.99,,,0.00,weatherlink.com 1.10,2013-01-17 01:18:00,
2013-01-16 20:33:00,50.8,47.0,30.02,SE,132,0.0,-999.0,85,-99.99,,,0.00,weatherlink.com 1.10,2013-01-17 01:33:00,
2013-01-16 20:48:00,50.5,47.0,30.02,WNW,296,0.0,-999.0,86,-99.99,,,0.00,weatherlink.com 1.10,2013-01-17 01:48:00,
2013-01-16 21:03:00,50.2,46.0,30.03,ESE,116,0.0,-999.0,86,-99.99,,,0.00,weatherlink.com 1.10,2013-01-17 02:03:00,
2013-01-16 21:18:00,49.9,46.0,30.02,ESE,116,0.0,-999.0,87,-99.99,,,0.00,weatherlink.com 1.10,2013-01-17 02:18:00,
2013-01-16 21:33:00,49.8,46.0,30.02,ESE,116,0.0,-999.0,87,-99.99,,,0.00,weatherlink.com 1.10,2013-01-17 02:33:00,
2013-01-16 21:48:00,49.8,46.0,30.01,ESE,117,0.0,-999.0,88,-99.99,,,0.00,weatherlink.com 1.10,2013-01-17 02:48:00,
2013-01-16 22:03:00,49.5,46.0,30.02,ESE,117,0.0,-999.0,89,-99.99,,,0.00,weatherlink.com 1.10,2013-01-17 03:03:00,
2013-01-16 22:18:00,49.5,46.0,30.02,SW,229,3.0,-999.0,89,-99.99,,,0.00,weatherlink.com 1.10,2013-01-17 03:18:00,
2013-01-16 22:33:00,49.5,47.0,30.03,SSW,213,5.0,-999.0,90,-99.99,,,0.00,weatherlink.com 1.10,2013-01-17 03:33:00,
2013-01-16 22:48:00,49.1,47.0,30.02,SW,226,2.0,-999.0,91,-99.99,,,0.00,weatherlink.com 1.10,2013-01-17 03:48:00,
2013-01-16 23:03:00,48.9,46.0,30.02,SW,229,1.0,-999.0,91,-99.99,,,0.00,weatherlink.com 1.10,2013-01-17 04:03:00,
2013-01-16 23:18:00,48.9,46.0,30.01,ESE,121,0.0,-999.0,91,-99.99,,,0.00,weatherlink.com 1.10,2013-01-17 04:18:00,
2013-01-16 23:33:00,48.8,47.0,30.01,WSW,243,1.0,-999.0,92,-99.99,,,0.00,weatherlink.com 1.10,2013-01-17 04:33:00,
2013-01-16 23:48:00,48.9,47.0,30.01,SE,127,0.0,-999.0,93,-99.99,,,0.00,weatherlink.com 1.10,2013-01-17 04:48:00,